Weather History for Dryden, TX

Change the Weather History Date:

Thursday, May 24, 2012

  Actual Average (KFST) Record (KFST)
Temperature  
Mean Temperature 86 °F -  
Max Temperature 105 °F 91 °F 108 °F (2000)
Min Temperature 68 °F 63 °F 60 °F (1997)
Cooling Degree Days 21    
Growing Degree Days 36 (Base 50)    
Moisture  
Dew Point 54 °F    
Average Humidity 42    
Maximum Humidity 73    
Minimum Humidity 7    
Precipitation  
Precipitation 0.00 in - - ()
Sea Level Pressure  
Sea Level Pressure 29.53 in    
Wind  
Wind Speed 6 mph (ESE)    
Max Wind Speed 16 mph    
Max Gust Speed 23 mph    
Averages and records for this station are not official NWS values.
T = Trace of Precipitation, MM = Missing Value Source: NWS Daily Summary

Daily Weather History Graph

Daily Weather History Graph

Search for Another Location

Airport:

Trip Planner

Search our weather history database for the weather conditions in past years. The results will help you decide how hot, cold, wet, or windy it might be!

Date:

Astronomy

May. 24, 2012 Rise Set
Actual Time 6:50 AM CDT 8:41 PM CDT
Civil Twilight 6:23 AM CDT 9:08 PM CDT
Nautical Twilight 5:51 AM CDT 9:40 PM CDT
Astronomical Twilight 5:17 AM CDT 10:14 PM CDT
Moon 9:50 AM CDT (5/24) 11:47 PM CDT (5/24)
Length of Visible Light 14h 44m
Length of Day
13h 50m
Waxing Crescent, 12% of the Moon is Illuminated
May 24
Waxing Crescent
May 28
First Quarter
Jun 4
Full
Jun 11
Last Quarter
Jun 19
New

Hourly Weather History & Observations

Time (CDT) Temp. Heat Index Dew Point Humidity Pressure Visibility Wind Dir Wind Speed Gust Speed Precip Events Conditions
12:53 AM 78.1 °F - 59.0 °F 52% 29.47 in - NE 4.6 mph - N/A   Unknown
1:53 AM 75.0 °F - 57.9 °F 55% 29.46 in - NE 5.8 mph - N/A   Unknown
2:53 AM 73.0 °F - 57.9 °F 59% 29.46 in - NE 5.8 mph - N/A   Unknown
3:53 AM 71.1 °F - 57.9 °F 63% 29.48 in - North 4.6 mph - N/A   Unknown
4:53 AM 71.1 °F - 57.0 °F 61% 29.49 in - NE 4.6 mph - N/A   Unknown
5:53 AM 70.0 °F - 57.9 °F 65% 29.52 in - Calm Calm - N/A   Unknown
6:53 AM 68.0 °F - 57.9 °F 70% 29.55 in - NNE 6.9 mph - N/A   Unknown
7:53 AM 71.1 °F - 62.1 °F 73% 29.57 in - NNE 3.5 mph - N/A   Unknown
8:53 AM 75.0 °F - 64.0 °F 69% 29.60 in - Calm Calm - N/A   Unknown
9:53 AM 78.1 °F - 64.9 °F 64% 29.60 in - Calm Calm - N/A   Unknown
10:53 AM 82.9 °F 84.0 °F 63.0 °F 51% 29.60 in - Calm Calm - N/A   Unknown
11:53 AM 90.0 °F 89.7 °F 60.1 °F 37% 29.58 in - Variable 3.5 mph - N/A   Unknown
12:53 PM 96.1 °F - 52.0 °F 22% 29.57 in - South 8.1 mph - N/A   Unknown
1:53 PM 100.9 °F - 39.0 °F 12% 29.54 in - SSW 11.5 mph 16.1 mph N/A   Unknown
2:53 PM 104.0 °F - 30.9 °F 8% 29.51 in - SSW 12.7 mph 19.6 mph N/A   Unknown
3:53 PM 102.9 °F - 30.0 °F 8% 29.50 in - SSW 6.9 mph - N/A   Unknown
4:53 PM 102.9 °F - 28.0 °F 7% 29.49 in - Variable 3.5 mph - N/A   Unknown
5:53 PM 99.0 °F - 48.9 °F 18% 29.48 in - SSE 16.1 mph - N/A   Unknown
6:53 PM 96.1 °F 94.1 °F 55.0 °F 25% 29.50 in - SE 15.0 mph 23.0 mph N/A   Unknown
7:53 PM 93.0 °F - 52.0 °F 25% 29.51 in - ESE 15.0 mph - N/A   Unknown
8:53 PM 89.1 °F 87.3 °F 55.9 °F 32% 29.53 in - SE 9.2 mph - N/A   Unknown
9:53 PM 87.1 °F 87.5 °F 62.1 °F 43% 29.55 in - SE 13.8 mph - N/A   Unknown
10:53 PM 86.0 °F 86.3 °F 62.1 °F 44% 29.57 in - ESE 12.7 mph - N/A   Unknown
11:53 PM 84.0 °F 84.9 °F 63.0 °F 49% 29.58 in - ESE 11.5 mph - N/A   Unknown